This is the latest recevied weather packets stored in our database for station/object W8RSN-13. If no packets are shown the sender has not sent any weather packets the latest 10 day(s).
| Time | Temp. | Humidity | Pressure | Rain* | Wind** | Luminosity | Snow |
|---|---|---|---|---|---|---|---|
| 1787666613 | 23.89° C | 57% | 1017 hPa | - | - | - | - |
| 1787666312 | 23.33° C | 59% | 1016.8 hPa | - | - | - | - |
| 1787666011 | 22.78° C | 60% | 1016.5 hPa | - | - | - | - |
| 1787665710 | 22.78° C | 60% | 1016.8 hPa | - | - | - | - |
| 1787665409 | 22.22° C | 59% | 1016.8 hPa | - | - | - | - |
| 1787665108 | 22.22° C | 57% | 1016.8 hPa | - | - | - | - |
| 1787664807 | 21.67° C | 56% | 1016.4 hPa | - | - | - | - |
| 1787664506 | 21.67° C | 55% | 1016.4 hPa | - | - | - | - |
| 1787664206 | 21.67° C | 55% | 1016.4 hPa | - | - | - | - |
| 1787663905 | 22.22° C | 56% | 1016.6 hPa | - | - | - | - |
| 1787663603 | 22.22° C | 56% | 1016.4 hPa | - | - | - | - |
| 1787663303 | 22.22° C | 55% | 1016.2 hPa | - | - | - | - |
| 1787663002 | 22.22° C | 54% | 1016.1 hPa | - | - | - | - |
| 1787662701 | 22.78° C | 53% | 1016.1 hPa | - | - | - | - |
| 1787662400 | 22.78° C | 54% | 1016.1 hPa | - | - | - | - |
| 1787662099 | 22.78° C | 53% | 1016.1 hPa | - | - | - | - |
| 1787661798 | 22.78° C | 52% | 1016.2 hPa | - | - | - | - |
| 1787661497 | 22.78° C | 52% | 1016 hPa | - | - | - | - |
| 1787661196 | 22.78° C | 51% | 1015.7 hPa | - | - | - | - |
| 1787660915 | 22.78° C | 51% | 1015.9 hPa | - | - | - | - |
| 1787660615 | 22.78° C | 51% | 1016.2 hPa | - | - | - | - |
| 1787660314 | 22.78° C | 51% | 1015.8 hPa | - | - | - | - |
| 1787660013 | 22.22° C | 52% | 1015.9 hPa | - | - | - | - |
| 1787659712 | 21.67° C | 55% | 1015.8 hPa | - | - | - | - |
| 1787659411 | 22.22° C | 56% | 1015.7 hPa | - | - | - | - |
* Rain since midnight (hover to see other rain measurements)
** Current wind speed in m/s (hover to see current wind gust speed)